FW7820 Weather Reports


Display with metric or nautical units.
time (UTC)temp
F
wind
direction
speed
MPH
gust
MPH
rain 1hr
in
rain 24hr
in
rain mn
in
humidity
%
barometer
mb
20260509011612 63 42 0.0 0.0 0.00 0.87 0.87 99 1011.1
20260509011108 63 34 0.0 0.0 0.00 0.87 0.87 99 1011.3
20260509010606 64 70 0.0 0.0 0.00 0.87 0.87 99 1011.1
20260509005601 64 252 0.0 0.0 0.00 0.87 0.87 99 1011.6
20260509005056 64 5 0.0 0.0 0.00 0.87 0.87 99 1011.6
20260509004553 64 60 0.0 1.0 0.00 0.87 0.87 99 1011.7
20260509004049 64 36 0.0 0.0 0.00 0.87 0.87 99 1011.6
20260509003548 64 70 0.0 0.0 0.00 0.87 0.87 99 1010.9
20260509003045 64 63 0.0 0.0 0.00 0.87 0.87 99 1011.6
20260509002542 64 49 0.0 0.0 0.00 0.87 0.87 99 1012.0
20260509002040 64 43 0.0 0.0 0.00 0.87 0.87 99 1011.8
20260509001537 64 44 0.0 0.0 0.00 0.87 0.87 99 1012.0
20260509001032 64 59 0.0 0.0 0.00 0.87 0.87 99 1011.7
20260509000531 64 59 0.0 0.0 0.00 0.87 0.87 99 1011.6
20260509000027 64 50 0.0 0.0 0.00 0.87 0.87 99 1011.8
20260508235525 64 62 0.0 0.0 0.00 0.87 0.87 99 1011.6
20260508235021 64 48 0.0 0.0 0.00 0.87 0.87 99 1011.6
20260508234519 64 68 0.0 0.0 0.00 0.87 0.87 99 1011.7
20260508234015 64 46 0.0 0.0 0.00 0.87 0.87 99 1011.8
20260508233515 64 45 0.0 0.0 0.00 0.87 0.87 99 1011.9
20260508233012 64 62 0.0 0.0 0.00 0.87 0.87 99 1011.9
20260508232508 64 65 0.0 0.0 0.00 0.87 0.87 99 1012.0
20260508232005 64 52 0.0 0.0 0.00 0.87 0.87 99 1011.9
20260508231503 64 54 0.0 0.0 0.00 0.87 0.87 99 1011.7
20260508231000 64 49 0.0 0.0 0.00 0.87 0.87 99 1011.9
20260508230456 64 54 0.0 0.0 0.00 0.87 0.87 99 1011.9
20260508225953 64 55 0.0 0.0 0.00 0.87 0.87 99 1012.2
20260508225450 64 20 0.0 0.0 0.00 0.87 0.87 99 1012.1
20260508224947 64 35 0.0 0.0 0.00 0.87 0.87 99 1011.8
20260508224445 64 359 0.0 0.0 0.00 0.87 0.87 99 1011.9
20260508223942 64 15 0.0 0.0 0.00 0.87 0.87 99 1011.5
20260508223440 64 48 0.0 0.0 0.00 0.87 0.87 99 1011.7
20260508222937 64 345 0.0 0.0 0.00 0.87 0.87 99 1011.7
20260508222434 64 302 0.0 0.0 0.00 0.87 0.87 99 1011.6
20260508221931 64 336 1.0 1.0 0.00 0.87 0.87 99 1011.4
20260508221427 64 14 0.0 0.0 0.00 0.87 0.87 99 1011.3
20260508220923 63 59 0.0 0.0 0.00 0.87 0.87 99 1011.3
20260508220420 63 354 0.0 0.0 0.00 0.87 0.87 99 1011.5
20260508215916 63 85 0.0 0.0 0.05 0.87 0.87 99 1011.6
20260508215413 63 242 0.0 1.0 0.12 0.87 0.87 99 1011.9
20260508214909 63 317 2.0 2.0 0.12 0.86 0.86 99 1010.5
20260508214407 63 79 0.0 0.0 0.05 0.85 0.85 99 1011.1
20260508213903 63 67 0.0 0.0 0.07 0.84 0.84 99 1012.1
20260508213401 63 8 0.0 0.0 0.07 0.84 0.84 99 1012.0
20260508212856 63 13 0.0 0.0 0.00 0.83 0.83 99 1012.5
20260508212353 63 37 0.0 0.0 0.05 0.83 0.83 99 1012.4
20260508211848 63 270 0.0 0.0 0.05 0.83 0.83 99 1012.7
20260508211344 63 314 1.0 1.0 0.00 0.82 0.82 99 1012.5
20260508210842 63 343 0.0 0.0 0.07 0.82 0.82 99 1012.1
20260508210338 63 22 0.0 0.0 0.12 0.82 0.82 99 1012.1
20260508205835 63 298 2.0 2.0 0.12 0.81 0.81 99 1011.8
20260508205332 63 85 1.0 1.0 0.19 0.80 0.80 99 1012.0
20260508204828 63 67 0.0 0.0 0.31 0.79 0.79 99 1013.0
20260508204325 63 47 0.0 0.0 0.31 0.77 0.77 99 1013.2
20260508203821 62 62 0.0 0.0 0.24 0.75 0.75 99 1013.9
20260508203317 62 66 0.0 0.0 0.24 0.72 0.72 99 1014.2
20260508202813 62 69 0.0 0.0 0.31 0.71 0.71 99 1014.4
20260508202311 62 93 0.0 1.0 0.19 0.68 0.68 99 1014.4
20260508201808 62 25 0.0 0.0 0.12 0.66 0.66 99 1014.5
20260508201305 62 46 0.0 0.0 0.12 0.65 0.65 99 1014.5
20260508200801 62 6 0.0 0.0 0.19 0.64 0.64 99 1014.3
20260508200257 62 62 0.0 0.0 0.24 0.63 0.63 99 1014.1
20260508195754 62 55 0.0 0.0 0.24 0.61 0.61 99 1014.7
20260508195250 62 355 0.0 0.0 0.24 0.59 0.59 99 1014.3
20260508194746 62 56 0.0 0.0 0.24 0.57 0.57 99 1014.4
20260508194244 62 91 0.0 0.0 0.19 0.55 0.55 99 1014.4
20260508193741 62 60 0.0 0.0 0.19 0.53 0.53 99 1014.7
20260508193237 62 48 0.0 0.0 0.17 0.52 0.52 99 1015.1
20260508192734 62 61 0.0 0.0 0.12 0.50 0.50 99 1014.8
20260508192231 62 71 1.0 2.0 0.19 0.49 0.49 99 1014.6
20260508191728 62 80 0.0 0.0 0.17 0.48 0.48 99 1014.4
20260508191225 62 71 0.0 0.0 0.12 0.46 0.46 99 1013.9
20260508190722 62 52 0.0 0.0 0.12 0.45 0.45 99 1013.7
20260508190218 62 35 0.0 0.0 0.05 0.44 0.44 99 1013.8
20260508185715 62 58 0.0 0.0 0.07 0.43 0.43 99 1013.6
20260508185213 62 355 3.0 3.0 0.14 0.43 0.43 99 1013.7
20260508184710 62 333 0.0 1.0 0.12 0.42 0.42 99 1013.5
20260508184207 62 4 1.0 1.0 0.12 0.41 0.41 99 1013.3
20260508183703 62 353 0.0 0.0 0.12 0.40 0.40 99 1013.1
20260508183200 62 44 1.0 2.0 0.12 0.39 0.39 99 1013.6
20260508182655 62 356 2.0 2.0 0.19 0.38 0.38 99 1013.5
20260508182152 62 45 0.0 0.0 0.12 0.37 0.37 99 1014.0
20260508181648 62 52 1.0 1.0 0.05 0.35 0.35 99 1014.3
20260508181145 62 53 0.0 0.0 0.12 0.35 0.35 99 1014.5
20260508180642 62 76 0.0 0.0 0.12 0.34 0.34 99 1014.5
20260508180139 62 55 0.0 0.0 0.17 0.33 0.33 99 1014.8
20260508175636 62 43 0.0 0.0 0.12 0.32 0.32 99 1015.3
20260508175132 62 59 0.0 0.0 0.07 0.30 0.30 99 1014.9
20260508174630 62 54 0.0 0.0 0.07 0.30 0.30 99 1015.2
20260508174126 62 75 0.0 0.0 0.07 0.29 0.29 99 1015.5
20260508173623 62 15 0.0 0.0 0.19 0.29 0.29 99 1016.0
20260508173119 62 72 0.0 0.0 0.24 0.28 0.28 99 1015.9
20260508172617 62 59 0.0 0.0 0.28 0.26 0.26 99 1016.1
20260508172113 62 76 0.0 0.0 0.28 0.24 0.24 99 1016.2
20260508171610 62 78 0.0 0.0 0.19 0.21 0.21 99 1016.0
20260508171106 62 52 0.0 0.0 0.12 0.19 0.19 99 1016.1
20260508170604 62 24 0.0 1.0 0.19 0.18 0.18 99 1015.9
20260508170101 62 44 2.0 3.0 0.19 0.17 0.17 99 1015.9
20260508165558 62 330 2.0 3.0 0.12 0.15 0.15 99 1016.2
20260508165055 62 9 1.0 2.0 0.12 0.14 0.14 99 1016.1
20260508164551 62 29 0.0 0.0 0.12 0.13 0.13 99 1015.9
20260508164048 62 336 1.0 1.0 0.12 0.12 0.12 99 1015.5
20260508163546 62 357 1.0 1.0 0.12 0.11 0.11 99 1015.2
20260508163042 62 48 1.0 2.0 0.12 0.10 0.10 99 1015.3
20260508162539 62 3 2.0 2.0 0.17 0.09 0.09 99 1015.6
20260508162037 62 342 2.0 2.0 0.24 0.08 0.08 99 1015.8
20260508161533 62 30 0.0 0.0 0.19 0.06 0.06 99 1016.2
20260508161030 62 335 1.0 2.0 0.14 0.04 0.04 99 1016.2
20260508160529 63 103 0.0 1.0 0.12 0.03 0.03 99 1016.1
20260508160025 63 346 2.0 2.0 0.12 0.02 0.02 98 1016.5
20260508155522 63 345 1.0 1.0 0.07 0.01 0.01 97 1016.1
20260508155019 64 47 0.0 0.0 0.00 0.00 0.00 96 1015.6
20260508154517 64 38 0.0 0.0 0.00 0.00 0.00 95 1015.7
20260508154013 64 9 0.0 0.0 0.00 0.00 0.00 95 1015.6
20260508153510 64 20 0.0 0.0 0.00 0.00 0.00 94 1015.2
20260508153006 64 4 1.0 1.0 0.00 0.00 0.00 93 1014.8
20260508152503 64 67 1.0 2.0 0.00 0.00 0.00 93 1015.0
20260508151959 64 87 1.0 1.0 0.00 0.00 0.00 93 1015.1
20260508151456 64 13 1.0 1.0 0.00 0.00 0.00 93 1015.1
20260508150952 64 350 3.0 3.0 0.00 0.00 0.00 92 1015.4
20260508150449 64 33 0.0 0.0 0.00 0.00 0.00 92 1015.2
20260508145945 64 77 1.0 2.0 0.00 0.00 0.00 91 1014.9
20260508145442 64 52 0.0 0.0 0.00 0.00 0.00 91 1014.8
20260508144938 64 65 0.0 0.0 0.00 0.00 0.00 91 1015.2
20260508144436 65 357 1.0 1.0 0.00 0.00 0.00 90 1015.0
20260508143934 65 58 0.0 1.0 0.00 0.00 0.00 90 1014.9
20260508143431 65 45 4.0 5.0 0.00 0.00 0.00 89 1015.0
20260508142927 65 48 1.0 2.0 0.00 0.00 0.00 90 1015.1
20260508142425 65 348 1.0 2.0 0.00 0.00 0.00 89 1015.3
20260508141921 65 343 2.0 2.0 0.00 0.00 0.00 90 1015.4
20260508141417 65 68 1.0 2.0 0.00 0.00 0.00 91 1015.7
20260508140915 65 56 1.0 2.0 0.00 0.00 0.00 91 1015.2
20260508140412 65 32 2.0 3.0 0.00 0.00 0.00 91 1015.2
20260508135907 64 34 3.0 3.0 0.00 0.00 0.00 92 1015.2
20260508135405 64 343 0.0 1.0 0.00 0.00 0.00 93 1015.2
20260508134901 64 347 3.0 3.0 0.00 0.00 0.00 93 1015.3
20260508134357 64 55 1.0 1.0 0.00 0.00 0.00 94 1015.5
20260508133854 64 26 2.0 5.0 0.00 0.00 0.00 95 1015.2
20260508133352 64 58 1.0 1.0 0.00 0.00 0.00 97 1015.3
20260508132849 63 0 1.0 2.0 0.00 0.00 0.00 98 1015.3
20260508132347 63 104 1.0 1.0 0.00 0.00 0.00 99 1015.4
20260508131843 62 41 1.0 1.0 0.00 0.00 0.00 99 1015.6
20260508131338 62 21 0.0 1.0 0.00 0.00 0.00 99 1015.3
20260508130835 62 46 0.0 1.0 0.00 0.00 0.00 99 1015.6
20260508130332 62 35 0.0 0.0 0.00 0.00 0.00 99 1015.7
20260508125828 62 27 0.0 1.0 0.00 0.00 0.00 99 1015.6
20260508125325 61 87 0.0 0.0 0.00 0.00 0.00 99 1015.6
20260508124823 61 31 0.0 1.0 0.00 0.00 0.00 99 1015.1
20260508124320 61 5 5.0 6.0 0.00 0.00 0.00 99 1015.1
20260508123818 61 6 2.0 3.0 0.00 0.00 0.00 99 1015.1
20260508123316 61 350 1.0 2.0 0.00 0.00 0.00 99 1015.0
20260508122812 61 58 1.0 1.0 0.00 0.00 0.00 99 1015.3
20260508122309 61 349 3.0 3.0 0.00 0.00 0.00 99 1015.2
20260508121806 61 63 1.0 2.0 0.00 0.00 0.00 99 1015.4
20260508121305 61 355 3.0 5.0 0.00 0.00 0.00 99 1015.5
20260508120802 61 60 2.0 2.0 0.00 0.00 0.00 99 1015.8
20260508120300 61 343 1.0 1.0 0.00 0.00 0.00 99 1015.4
20260508115757 61 27 1.0 1.0 0.00 0.00 0.00 99 1015.6
20260508115254 61 329 1.0 2.0 0.00 0.00 0.00 99 1016.0
20260508114750 61 344 3.0 3.0 0.00 0.00 0.00 99 1016.0
20260508114247 61 359 1.0 1.0 0.00 0.00 0.00 99 1015.6
20260508113743 60 6 1.0 1.0 0.00 0.00 0.00 99 1015.6
20260508113243 60 31 0.0 0.0 0.00 0.00 0.00 99 1015.6
20260508112738 60 353 2.0 3.0 0.00 0.00 0.00 99 1015.3
20260508112235 60 17 0.0 0.0 0.00 0.00 0.00 99 1015.2
20260508111731 60 358 1.0 1.0 0.00 0.00 0.00 99 1015.4
20260508111230 60 15 1.0 1.0 0.00 0.00 0.00 99 1015.0
20260508110726 60 15 0.0 0.0 0.00 0.00 0.00 99 1015.2
20260508110223 60 35 0.0 0.0 0.00 0.00 0.00 99 1015.2
20260508105718 60 34 0.0 0.0 0.00 0.00 0.00 99 1015.3
20260508105215 60 48 0.0 1.0 0.00 0.00 0.00 99 1015.2
20260508104712 60 15 0.0 0.0 0.00 0.00 0.00 99 1015.4
20260508104209 60 353 1.0 1.0 0.00 0.00 0.00 99 1015.4
20260508103706 60 15 0.0 0.0 0.00 0.00 0.00 99 1015.3
20260508103203 61 337 1.0 2.0 0.00 0.00 0.00 99 1015.0
20260508102700 60 38 0.0 0.0 0.00 0.00 0.00 99 1014.9
20260508102158 60 38 0.0 0.0 0.00 0.00 0.00 99 1014.7
20260508101655 60 4 0.0 0.0 0.00 0.00 0.00 99 1014.7
20260508101153 60 16 0.0 1.0 0.00 0.00 0.00 99 1014.9
20260508100650 60 55 0.0 0.0 0.00 0.00 0.00 99 1014.5
20260508100148 60 55 0.0 0.0 0.00 0.00 0.00 99 1014.4
20260508095644 60 56 0.0 0.0 0.00 0.00 0.00 99 1014.1
20260508095142 60 56 0.0 0.0 0.00 0.00 0.00 99 1013.9
20260508094638 61 58 0.0 0.0 0.00 0.00 0.00 99 1014.1
20260508094135 61 60 0.0 0.0 0.00 0.00 0.00 99 1013.8
20260508093633 61 54 0.0 0.0 0.00 0.00 0.00 99 1013.8
20260508093130 61 11 1.0 1.0 0.00 0.00 0.00 99 1013.8
20260508092627 61 11 1.0 1.0 0.00 0.00 0.00 99 1014.2
20260508092126 61 10 0.0 0.0 0.00 0.00 0.00 99 1014.3
20260508091622 61 17 1.0 1.0 0.00 0.00 0.00 99 1014.6
20260508091120 61 3 2.0 2.0 0.00 0.00 0.00 99 1014.5
20260508090618 61 354 1.0 1.0 0.00 0.00 0.00 99 1014.5
20260508090114 61 0 0.0 0.0 0.00 0.00 0.00 99 1013.9
20260508085610 61 357 2.0 2.0 0.00 0.00 0.00 99 1013.6
20260508085108 61 351 1.0 2.0 0.00 0.00 0.00 99 1013.7
20260508084604 61 41 0.0 0.0 0.00 0.00 0.00 99 1013.5
20260508084102 61 41 0.0 0.0 0.00 0.00 0.00 99 1013.6
20260508083559 61 41 0.0 0.0 0.00 0.00 0.00 99 1013.7
20260508083056 61 41 0.0 0.0 0.00 0.00 0.00 99 1013.6
20260508082551 61 23 0.0 0.0 0.00 0.00 0.00 99 1013.6
20260508082049 61 47 0.0 0.0 0.00 0.00 0.00 99 1013.8
20260508081546 61 37 0.0 0.0 0.00 0.00 0.00 99 1013.6
20260508081042 61 37 0.0 0.0 0.00 0.00 0.00 99 1014.1
20260508080540 61 37 0.0 0.0 0.00 0.00 0.00 99 1014.3
20260508080037 61 48 0.0 0.0 0.00 0.00 0.00 99 1014.3
20260508075534 61 43 0.0 0.0 0.00 0.00 0.00 99 1014.4
20260508075031 61 48 0.0 0.0 0.00 0.00 0.00 99 1014.7
20260508074529 61 32 0.0 0.0 0.00 0.00 0.00 99 1014.8
20260508074026 61 33 0.0 0.0 0.00 0.00 0.00 99 1014.9
20260508073523 61 30 0.0 0.0 0.00 0.00 0.00 99 1014.9
20260508073021 61 28 0.0 0.0 0.00 0.00 0.00 99 1014.6
20260508072516 61 29 0.0 0.0 0.00 0.00 0.00 99 1014.7
20260508072014 61 33 0.0 0.0 0.00 0.00 0.00 99 1014.7
20260508071511 60 21 0.0 0.0 0.00 0.00 0.00 99 1014.6
20260508071009 60 30 0.0 0.0 0.00 0.00 0.00 99 1014.6
20260508070506 60 30 0.0 0.0 0.00 0.00 0.00 99 1014.5
20260508070005 60 37 0.0 0.0 0.00 0.00 0.00 99 1014.3
20260508065502 60 5 0.0 1.0 0.00 0.00 0.00 99 1014.4
20260508065000 60 30 0.0 0.0 0.00 0.00 0.00 99 1014.4
20260508064457 60 30 0.0 0.0 0.00 0.00 0.00 99 1014.5
20260508063955 60 30 0.0 0.0 0.00 0.00 0.00 99 1014.5
20260508063452 60 30 0.0 0.0 0.00 0.00 0.00 99 1014.6
20260508062949 61 18 0.0 0.0 0.00 0.00 0.00 99 1014.6
20260508062447 61 18 0.0 0.0 0.00 0.00 0.00 99 1014.5
20260508061944 61 8 0.0 0.0 0.00 0.00 0.00 99 1014.4
20260508061442 61 355 1.0 1.0 0.00 0.00 0.00 99 1014.4
20260508060937 61 37 0.0 0.0 0.00 0.00 0.00 99 1014.5
20260508060435 61 13 0.0 0.0 0.00 0.00 0.00 99 1014.5
20260508055931 61 63 0.0 0.0 0.00 0.00 0.00 99 1014.2
20260508055428 61 338 2.0 2.0 0.00 0.00 0.00 99 1015.0
20260508054924 61 349 1.0 1.0 0.00 0.00 0.00 99 1014.8
20260508054422 61 4 1.0 1.0 0.00 0.00 0.00 99 1014.9
20260508053918 61 22 0.0 0.0 0.00 0.00 0.00 99 1014.7
20260508053415 61 331 1.0 2.0 0.00 0.00 0.00 99 1014.5
20260508052913 61 40 0.0 0.0 0.00 0.00 0.00 99 1014.2
20260508052411 61 39 0.0 0.0 0.00 0.00 0.00 99 1014.7
20260508051906 61 39 0.0 0.0 0.00 0.00 0.00 99 1014.9
20260508051403 62 39 0.0 0.0 0.00 0.00 0.00 99 1014.9
20260508050858 62 39 0.0 0.0 0.00 0.00 0.00 99 1014.7
20260508050356 62 4 0.0 1.0 0.00 0.00 0.00 99 1014.9
20260508045851 62 48 0.0 0.0 0.00 1.55 1.55 99 1014.7
20260508045349 62 42 0.0 0.0 0.00 1.55 1.55 99 1014.8
20260508044847 62 37 0.0 0.0 0.00 1.55 1.55 99 1015.2
20260508044343 62 38 0.0 0.0 0.00 1.55 1.55 99 1015.0
20260508043839 62 13 0.0 0.0 0.00 1.55 1.55 99 1015.0
20260508043337 62 13 0.0 0.0 0.00 1.55 1.55 99 1015.1
20260508042833 62 333 2.0 2.0 0.00 1.55 1.55 99 1015.4
20260508042331 62 0 1.0 2.0 0.00 1.55 1.55 99 1015.6
20260508041827 62 3 0.0 1.0 0.00 1.55 1.55 99 1015.3
20260508041324 62 5 0.0 0.0 0.00 1.55 1.55 99 1015.4
20260508040820 62 10 0.0 0.0 0.00 1.55 1.55 99 1015.0
20260508040318 62 1 0.0 0.0 0.00 1.55 1.55 99 1015.2
20260508035815 62 5 0.0 1.0 0.00 1.55 1.55 99 1015.2
20260508035312 62 43 0.0 0.0 0.00 1.55 1.55 99 1015.4
20260508034809 62 43 0.0 0.0 0.00 1.55 1.55 99 1015.4
20260508034306 62 36 0.0 0.0 0.00 1.55 1.55 99 1015.4
20260508033803 62 30 0.0 0.0 0.00 1.55 1.55 99 1015.5
20260508033302 62 2 0.0 1.0 0.00 1.55 1.55 99 1015.7
20260508032759 62 30 0.0 0.0 0.00 1.55 1.55 99 1015.7
20260508032256 62 30 0.0 0.0 0.00 1.55 1.55 99 1015.6
20260508031752 62 30 0.0 0.0 0.00 1.55 1.55 99 1015.3
20260508031249 62 30 0.0 0.0 0.00 1.55 1.55 99 1015.8
20260508030745 62 30 0.0 0.0 0.00 1.55 1.55 99 1015.6
20260508030243 62 12 0.0 0.0 0.00 1.55 1.55 99 1016.0
20260508025739 62 34 0.0 1.0 0.00 1.55 1.55 99 1015.6
20260508025236 62 34 0.0 0.0 0.00 1.55 1.55 99 1015.7
20260508024732 62 34 0.0 0.0 0.00 1.55 1.55 99 1015.5
20260508024229 63 34 0.0 0.0 0.00 1.55 1.55 99 1015.4
20260508023726 63 34 0.0 0.0 0.00 1.55 1.55 99 1015.3
20260508023224 63 34 0.0 0.0 0.00 1.55 1.55 99 1015.5
20260508022719 63 34 0.0 0.0 0.00 1.55 1.55 99 1015.5
20260508022216 63 34 0.0 0.0 0.00 1.55 1.55 99 1015.4
20260508021713 64 34 0.0 0.0 0.00 1.55 1.55 99 1015.2
20260508021208 64 34 0.0 0.0 0.00 1.55 1.55 99 1015.3
20260508020706 64 34 0.0 0.0 0.00 1.55 1.55 99 1015.0
20260508020203 64 34 0.0 0.0 0.00 1.55 1.55 98 1014.6
20260508015700 64 24 0.0 0.0 0.00 1.55 1.55 98 1014.8
20260508015157 64 19 0.0 0.0 0.00 1.55 1.55 98 1014.5
20260508014653 64 20 1.0 1.0 0.00 1.55 1.55 98 1014.4
20260508014149 64 21 0.0 0.0 0.00 1.55 1.55 98 1014.6
20260508013646 64 339 1.0 2.0 0.00 1.55 1.55 98 1014.7
20260508013143 64 359 1.0 1.0 0.00 1.55 1.55 98 1014.8
20260508012641 64 351 1.0 1.0 0.00 1.55 1.55 98 1014.7
20260508012137 64 340 3.0 3.0 0.00 1.55 1.55 98 1014.7